Vertical_Velocity
1 0 -0 0 -2 5 7 2 -4 -4 -4 -5 -5 -3 -3 -1 1 1 4 3 -2 0 2 -1 -0 -1 0 1 -1 -1 1 -1 1 -3 -2 -1 -0 -1 -1 -3 -2 -1 0 -0 0 1 -0 0 2
-2 -1 -0 0 -0 6 3 -8 -7 1 -3 -5 -7 1 -1 4 2 2 3 1 0 -6 2 -1 -2 -2 -1 0 -1 -1 0 -1 1 -3 -0 -0 1 -0 -1 -2 -2 -1 -0 -1 -1 1 0 -0 2
-3 1 -5 -0 5 2 3 -0 1 -2 -8 -2 7 -0 1 -1 9 6 1 4 2 2 -3 -2 -0 -2 0 0 -1 0 1 -2 -1 -3 -1 1 0 -0 -2 -1 -2 -0 -1 -2 0 2 -0 -2 2
-1 0 -3 3 3 4 -0 1 -3 -4 -7 -3 7 -6 9 1 -3 -3 1 -0 1 -2 1 -2 -4 -2 -1 1 -1 0 1 -0 -1 -2 -1 -0 -1 0 0 -1 -0 -1 -1 -2 -2 1 -2 -3 2
-1 1 -2 5 3 4 -4 0 -2 -4 -0 -5 1 2 0 8 2 -4 4 1 0 3 -1 -0 0 -2 -2 -1 -1 1 1 -0 0 -2 -0 -1 -1 -1 -0 -1 -1 -1 -2 -3 -4 0 -1 -2 -1
-4 -1 1 5 6 4 1 -9 -4 1 1 -8 -2 1 1 0 -1 -1 -4 -1 2 -1 -4 3 -2 -2 -2 -1 -2 0 1 -1 1 -1 1 -1 -1 -1 -1 -1 -2 -1 -3 2 -4 -0 -0 -2 -2
-1 -4 4 4 8 5 -8 -8 -3 3 4 -6 -1 -1 0 1 4 2 5 0 0 1 -3 5 -0 -2 -1 -3 -0 0 1 -1 0 1 0 0 -1 -0 -1 -2 -1 -1 -1 0 -3 2 -2 -1 -3
-5 -5 9 5 1 9 -6 -8 -2 -1 12 -0 -3 -3 1 2 6 5 7 1 5 -1 4 1 4 0 -0 -3 -1 1 1 0 -0 1 0 1 -1 -2 -3 0 -2 -2 -1 1 2 1 -3 -1 -2
-2 -2 8 -1 -2 -2 -0 -3 3 -1 10 -2 -3 0 -5 6 0 2 2 1 2 3 0 1 0 2 -0 -2 -1 2 1 2 0 1 0 0 -1 -3 -3 -0 -3 0 1 0 1 0 1 5 -3
-4 5 -6 -3 -3 -2 8 -3 8 -9 -4 11 -4 -3 -13 5 0 -1 4 5 0 3 -2 1 -0 3 2 0 -2 -1 1 2 2 0 0 -0 -1 -1 -3 -3 -3 -1 -1 -4 -4 1 8 3 -4
2 2 -8 2 -2 -8 -2 4 -5 -0 8 -0 1 -1 -13 -2 -0 4 2 4 -0 2 1 -2 3 -4 2 2 -0 1 0 0 -0 0 1 -1 -0 -1 -1 -4 -2 -3 -2 -3 -2 -2 0 -1 -1
2 -3 1 2 -0 -7 -4 2 11 -7 19 -2 -3 1 4 -10 -1 3 3 5 6 -2 4 -2 -2 2 -4 2 0 1 2 1 0 0 0 -0 -2 0 -1 -1 -2 0 -0 -0 -0 -3 -2 -2 -1
1 1 -4 -5 -2 1 -9 7 -9 20 -10 -1 3 0 4 -1 -5 -4 1 1 1 4 -1 5 -4 0 1 -3 -0 1 0 2 2 1 -1 1 -3 1 -0 -1 -1 -2 -1 0 -2 -2 -4 -1 -2
-2 5 -0 -2 -4 -7 -8 7 -18 4 17 5 -5 4 3 0 4 -9 2 5 5 4 -2 5 -1 -3 1 2 0 1 0 -0 2 2 1 1 -3 -1 1 -0 -2 -3 -2 -2 -3 -1 -1 -2 0
-4 5 -2 3 -0 -18 -15 12 9 -4 -0 10 15 -4 5 3 6 -7 -3 2 -1 11 5 -0 3 -4 2 2 1 3 0 1 1 1 0 2 0 -2 1 -0 -0 -1 -2 -2 -1 -2 -0 -2 1
-0 2 4 1 -0 -12 -10 -15 40 2 -17 9 9 12 -11 7 5 8 5 -11 -1 3 0 9 2 -4 -1 5 3 -3 1 -0 1 1 1 1 1 -0 0 0 1 0 1 -1 -2 -2 1 1 -1
2 -2 3 3 -0 -6 -3 -26 64 19 5 -6 -5 -1 6 -9 -5 9 9 2 -4 -2 1 3 -1 3 2 -5 10 1 -1 -2 1 1 1 2 -0 1 -1 -1 0 -1 2 0 1 -1 -0 2 0
-2 -1 1 -8 4 3 7 -17 -4 -2 -7 8 -5 7 -2 -1 -5 8 7 4 2 3 0 -6 4 4 -1 6 -0 5 1 -2 1 3 2 1 -1 -0 0 -1 0 -1 -0 0 0 0 -1 1 1
-3 -5 -17 6 2 -21 -3 -31 13 -4 12 -26 -11 -7 -1 2 2 -3 5 7 -2 4 2 1 -0 9 -5 -1 -19 8 10 3 2 5 1 1 -0 0 2 -1 -1 -2 -0 1 -0 -1 -2 -2 -2
-0 -8 -9 5 5 -22 -3 -32 20 13 -33 -1 -20 -15 -25 -19 24 12 2 3 1 10 4 4 -5 -1 -1 -2 -6 -0 8 8 -2 -2 3 -0 1 2 2 1 -0 -0 -1 -2 1 0 0 -1 -0
-4 -10 -3 -27 9 33 -8 -54 -4 22 10 10 2 -3 -8 -29 -7 16 13 -2 2 -2 8 6 9 -1 -5 5 4 -9 -4 4 -6 2 2 1 4 3 1 -1 -2 -1 -1 -1 0 2 0 -0 1
1 -2 1 -9 -20 -30 16 -121 21 -1 -11 -8 -17 -19 -4 -9 -13 -3 20 10 2 -2 6 2 10 3 -1 -2 3 -16 -5 -4 14 6 -2 5 -0 2 3 -0 -1 -0 -0 -0 -1 1 -1 1 -2
-4 -1 -4 -4 0 -16 3 -17 -23 -2 -22 -18 -16 6 -5 -4 -13 -3 6 27 8 13 11 5 -1 -6 7 -15 -1 -7 -1 8 7 0 2 2 -2 -1 2 -0 -2 -0 1 0 -0 0 -1 0 -1
-6 -5 -8 -5 -1 -7 1 5 -18 -6 -21 -14 -1 13 1 -1 -2 -11 3 25 11 20 -0 4 -5 0 -8 -9 1 -7 9 5 0 0 5 1 -3 2 2 -1 -2 1 -1 0 -1 -1 1 -1 -0
-4 -12 -9 2 -14 -4 -2 -18 9 -10 -6 -5 -12 10 -7 1 26 8 3 -0 1 5 -0 -2 -16 -8 -2 -8 6 5 -3 -7 5 -4 -2 -2 0 -2 3 2 1 -1 -1 1 -0 -1 -1 0 -1
-6 -6 -8 -17 -21 -34 4 11 2 -7 -4 -12 -4 20 0 20 19 16 10 1 6 -0 -6 6 5 -1 3 -2 4 10 -17 6 1 -8 -1 -1 -1 -4 -2 1 2 -0 -1 -0 1 -1 -2 -1 -0
-8 -6 -6 -15 12 -12 -10 7 27 8 3 -4 -5 25 6 7 19 3 3 3 -5 1 13 2 -6 -10 -2 9 10 -5 -8 3 3 -2 4 2 1 5 2 -5 -2 -1 -1 -0 -0 -0 -0 -1 -0
-2 -9 -3 1 -7 -20 6 3 -14 1 -1 -1 5 4 5 5 4 11 8 3 2 2 -5 -4 -4 1 -1 -24 5 4 6 -4 -8 2 8 11 1 -1 2 -0 3 1 -1 -0 0 -1 0 -1 -0
-4 -4 -7 -7 -1 -8 -29 7 -2 -3 -7 -5 7 5 19 -2 -2 -1 -2 -9 1 -0 2 -7 16 32 24 6 14 8 5 10 13 2 22 17 10 -2 -0 1 2 0 1 -1 -1 0 0 -0 -1
-3 -1 -10 -9 2 3 -6 12 -2 -4 -4 -1 14 10 -1 2 -4 -5 2 5 6 5 4 2 -5 46 -2 4 19 14 29 -2 4 27 11 12 18 -5 8 6 2 -1 1 1 -1 -0 2 -1 -0
Height
5833 5833 5833 5834 5837 5836 5839 5839 5837 5837 5837 5837 5837 5836 5836 5835 5835 5838 5838 5838 5838 5837 5836 5835 5834 5834 5834 5834 5833 5832 5832 5831 5832 5832 5831 5829 5828 5827 5825 5824 5823 5821 5820 5819 5818 5815 5813 5813 5813
5828 5829 5829 5829 5831 5832 5834 5831 5831 5831 5832 5832 5832 5831 5832 5833 5833 5833 5834 5834 5834 5834 5834 5832 5831 5832 5832 5831 5831 5830 5829 5829 5830 5830 5828 5827 5827 5825 5823 5822 5820 5818 5818 5816 5815 5812 5810 5810 5810
5825 5825 5826 5824 5827 5829 5830 5828 5827 5827 5827 5827 5827 5827 5827 5828 5828 5829 5829 5831 5831 5831 5830 5828 5828 5829 5829 5829 5828 5828 5827 5827 5827 5826 5825 5825 5824 5823 5822 5820 5819 5816 5815 5814 5813 5811 5810 5807 5806
5820 5821 5820 5819 5823 5826 5825 5823 5824 5824 5823 5823 5823 5825 5825 5826 5825 5825 5824 5825 5826 5826 5826 5826 5826 5825 5825 5826 5826 5826 5825 5824 5824 5823 5823 5823 5822 5821 5820 5819 5817 5814 5813 5811 5810 5809 5808 5806 5804
5815 5815 5812 5815 5819 5820 5821 5819 5819 5818 5819 5818 5817 5820 5820 5820 5821 5821 5821 5821 5821 5822 5823 5822 5823 5823 5822 5823 5823 5823 5823 5822 5822 5821 5821 5821 5820 5818 5818 5816 5814 5812 5810 5809 5808 5807 5806 5805 5803
5808 5809 5806 5808 5810 5813 5816 5813 5814 5812 5814 5812 5811 5813 5815 5815 5815 5815 5815 5817 5817 5817 5819 5819 5819 5819 5820 5820 5821 5821 5820 5820 5820 5819 5818 5818 5817 5816 5815 5814 5812 5810 5808 5808 5807 5806 5804 5804 5803
5801 5801 5800 5801 5805 5806 5807 5806 5806 5806 5809 5808 5807 5806 5808 5809 5808 5810 5811 5811 5812 5813 5815 5815 5815 5815 5816 5817 5818 5818 5817 5817 5817 5817 5815 5815 5814 5813 5812 5812 5810 5809 5807 5806 5804 5804 5803 5801 5802
5794 5793 5794 5796 5797 5797 5798 5799 5800 5801 5801 5801 5799 5800 5801 5802 5803 5805 5805 5805 5808 5807 5810 5810 5811 5810 5811 5813 5815 5815 5815 5814 5814 5814 5813 5812 5812 5811 5810 5810 5809 5807 5805 5804 5803 5802 5802 5799 5799
5788 5788 5788 5788 5787 5789 5790 5793 5794 5793 5791 5793 5794 5793 5793 5796 5797 5798 5798 5798 5800 5801 5803 5804 5805 5806 5805 5809 5811 5812 5813 5812 5811 5811 5810 5809 5809 5808 5808 5807 5807 5805 5804 5804 5801 5801 5801 5799 5797
5781 5782 5780 5779 5780 5781 5782 5784 5784 5783 5783 5784 5786 5785 5785 5788 5789 5789 5790 5790 5793 5795 5794 5797 5799 5800 5800 5803 5805 5807 5809 5809 5808 5807 5807 5806 5806 5805 5805 5805 5804 5802 5801 5802 5800 5798 5799 5799 5797
5773 5772 5771 5772 5772 5772 5773 5775 5773 5773 5774 5774 5777 5777 5775 5776 5780 5781 5783 5783 5784 5787 5787 5790 5791 5793 5794 5796 5799 5802 5803 5804 5804 5804 5803 5803 5803 5802 5801 5801 5801 5800 5799 5799 5797 5798 5797 5796 5795
5764 5764 5764 5763 5763 5763 5764 5765 5765 5764 5766 5765 5765 5766 5766 5764 5768 5770 5773 5775 5776 5778 5779 5781 5785 5786 5787 5788 5792 5795 5798 5799 5800 5800 5799 5799 5799 5798 5797 5797 5797 5797 5796 5796 5796 5795 5795 5793 5792
5756 5756 5754 5752 5752 5754 5755 5755 5754 5757 5753 5752 5754 5756 5756 5755 5756 5759 5762 5763 5764 5766 5770 5771 5776 5779 5782 5783 5784 5788 5791 5793 5794 5796 5795 5795 5795 5795 5794 5794 5794 5794 5793 5792 5793 5792 5791 5791 5790
5748 5746 5744 5744 5744 5744 5747 5747 5743 5745 5743 5741 5742 5744 5746 5747 5745 5746 5750 5751 5753 5755 5758 5761 5764 5769 5774 5778 5779 5780 5783 5785 5788 5790 5791 5791 5792 5791 5790 5790 5790 5790 5789 5789 5789 5789 5789 5790 5788
5738 5738 5736 5735 5735 5734 5736 5740 5736 5733 5731 5729 5729 5729 5732 5735 5735 5734 5736 5738 5740 5743 5747 5750 5753 5759 5764 5770 5773 5773 5774 5777 5781 5783 5786 5786 5787 5787 5787 5787 5787 5786 5786 5786 5786 5786 5786 5788 5787
5730 5729 5728 5727 5724 5724 5724 5734 5730 5721 5715 5716 5714 5714 5716 5720 5722 5722 5719 5722 5724 5727 5732 5739 5742 5748 5755 5761 5763 5765 5766 5769 5773 5775 5779 5781 5782 5782 5782 5783 5783 5783 5783 5783 5783 5784 5784 5784 5785
5721 5719 5717 5716 5713 5712 5710 5718 5725 5706 5698 5700 5698 5698 5697 5700 5704 5710 5708 5708 5710 5713 5718 5725 5730 5736 5744 5749 5755 5757 5758 5760 5765 5768 5771 5774 5776 5777 5777 5778 5779 5779 5780 5780 5780 5781 5781 5781 5781
5711 5711 5711 5708 5702 5700 5698 5702 5704 5702 5680 5677 5678 5677 5676 5675 5682 5687 5690 5692 5696 5698 5702 5708 5715 5724 5731 5736 5743 5747 5750 5753 5756 5761 5764 5766 5769 5771 5772 5773 5774 5775 5775 5776 5776 5777 5777 5778 5778
5702 5701 5700 5696 5692 5687 5683 5687 5689 5680 5666 5655 5646 5646 5650 5653 5658 5660 5668 5674 5676 5682 5687 5693 5700 5710 5716 5722 5731 5738 5744 5748 5750 5752 5756 5758 5761 5765 5767 5769 5769 5770 5771 5772 5773 5773 5774 5774 5775
5694 5691 5690 5690 5683 5674 5672 5674 5670 5658 5646 5628 5621 5617 5617 5621 5631 5634 5641 5649 5657 5664 5670 5677 5683 5692 5703 5710 5720 5727 5734 5738 5742 5744 5748 5750 5754 5758 5760 5763 5764 5765 5766 5767 5768 5769 5770 5770 5771
5684 5681 5679 5678 5675 5666 5652 5657 5651 5642 5628 5610 5603 5592 5582 5579 5591 5603 5614 5626 5637 5645 5653 5662 5670 5677 5688 5699 5705 5712 5720 5725 5732 5737 5741 5745 5747 5750 5753 5756 5758 5759 5760 5762 5763 5764 5765 5766 5766
5677 5673 5669 5665 5656 5655 5637 5631 5631 5615 5604 5596 5587 5577 5559 5552 5554 5565 5586 5603 5619 5631 5639 5647 5656 5663 5674 5682 5690 5701 5709 5718 5727 5731 5736 5738 5738 5742 5746 5748 5752 5754 5755 5756 5757 5758 5760 5761 5760
5667 5664 5660 5655 5647 5638 5626 5610 5609 5600 5588 5583 5572 5554 5538 5527 5522 5532 5551 5579 5599 5613 5621 5631 5639 5649 5658 5669 5679 5688 5700 5708 5716 5720 5725 5728 5730 5733 5738 5741 5744 5747 5749 5750 5751 5752 5754 5755 5755
5656 5655 5650 5645 5639 5632 5618 5601 5606 5589 5576 5573 5560 5543 5533 5522 5514 5515 5526 5553 5578 5593 5604 5616 5624 5635 5645 5662 5671 5679 5691 5697 5703 5711 5715 5719 5722 5725 5730 5734 5736 5739 5742 5744 5744 5745 5747 5749 5750
5647 5645 5641 5638 5628 5621 5610 5601 5598 5583 5574 5567 5555 5544 5534 5526 5517 5516 5521 5542 5566 5580 5597 5606 5619 5628 5637 5650 5659 5668 5677 5684 5692 5698 5704 5710 5714 5716 5722 5724 5728 5731 5734 5737 5738 5739 5741 5743 5744
5638 5632 5629 5620 5612 5604 5608 5598 5589 5578 5570 5563 5557 5548 5538 5532 5524 5523 5530 5548 5567 5581 5593 5602 5610 5618 5626 5639 5649 5659 5663 5674 5681 5686 5693 5699 5701 5707 5711 5715 5720 5723 5726 5729 5731 5732 5734 5736 5737
5631 5625 5619 5611 5605 5596 5599 5593 5587 5574 5569 5562 5557 5546 5538 5533 5531 5532 5540 5554 5567 5578 5587 5593 5600 5608 5618 5629 5640 5647 5655 5664 5670 5676 5681 5685 5693 5699 5704 5707 5711 5714 5717 5720 5722 5724 5726 5727 5728
5623 5619 5612 5605 5597 5592 5595 5584 5574 5569 5565 5563 5554 5546 5541 5538 5538 5539 5547 5555 5565 5573 5580 5582 5590 5601 5611 5619 5628 5638 5648 5652 5657 5661 5668 5677 5683 5689 5693 5696 5700 5704 5707 5710 5713 5715 5717 5719 5720
5616 5610 5604 5601 5596 5591 5585 5582 5574 5569 5566 5563 5556 5549 5544 5544 5545 5547 5551 5555 5559 5567 5571 5575 5583 5593 5600 5611 5620 5627 5635 5642 5648 5654 5659 5665 5672 5677 5682 5685 5690 5694 5697 5701 5704 5706 5709 5711 5712
5609 5603 5599 5594 5594 5590 5584 5581 5573 5569 5567 5564 5558 5551 5547 5542 5546 5548 5548 5550 5554 5560 5566 5571 5579 5583 5595 5604 5612 5620 5627 5634 5641 5645 5651 5653 5659 5666 5670 5674 5679 5684 5688 5691 5694 5697 5700 5702 5704